Hatchet Creek Weather Center

Moon Phase Calendar



Online Cameras

 


      

Current Conditions in Rockford
8/17/2022 8:10:30 AM

73°F
Feels Like 73
Clouds
Humidity
64%
Pressure
30"
Wind
1.3 mph (N)
Dew Point
60°F
UV Index
1/10 (Low)
Visibility
6 mi

Hourly Forecast

Date & Time Wed, Aug 17
8:00 AM
Wed, Aug 17
9:00 AM
Wed, Aug 17
10:00 AM
Wed, Aug 17
11:00 AM
Wed, Aug 17
12:00 PM
Wed, Aug 17
1:00 PM
Wed, Aug 17
2:00 PM
Wed, Aug 17
3:00 PM
Wed, Aug 17
4:00 PM
Wed, Aug 17
5:00 PM
Wed, Aug 17
6:00 PM
Wed, Aug 17
7:00 PM
Wed, Aug 17
8:00 PM
Wed, Aug 17
9:00 PM
Wed, Aug 17
10:00 PM
Wed, Aug 17
11:00 PM
Thu, Aug 18
12:00 AM
Thu, Aug 18
1:00 AM
Thu, Aug 18
2:00 AM
Thu, Aug 18
3:00 AM
Thu, Aug 18
4:00 AM
Thu, Aug 18
5:00 AM
Thu, Aug 18
6:00 AM
Thu, Aug 18
7:00 AM
Thu, Aug 18
8:00 AM
Thu, Aug 18
9:00 AM
Thu, Aug 18
10:00 AM
Thu, Aug 18
11:00 AM
Thu, Aug 18
12:00 PM
Thu, Aug 18
1:00 PM
Thu, Aug 18
2:00 PM
Thu, Aug 18
3:00 PM
Thu, Aug 18
4:00 PM
Thu, Aug 18
5:00 PM
Thu, Aug 18
6:00 PM
Thu, Aug 18
7:00 PM
Thu, Aug 18
8:00 PM
Thu, Aug 18
9:00 PM
Thu, Aug 18
10:00 PM
Thu, Aug 18
11:00 PM
Fri, Aug 19
12:00 AM
Fri, Aug 19
1:00 AM
Fri, Aug 19
2:00 AM
Fri, Aug 19
3:00 AM
Fri, Aug 19
4:00 AM
Fri, Aug 19
5:00 AM
Fri, Aug 19
6:00 AM
Fri, Aug 19
7:00 AM
Condition
Clouds

Clouds

Clouds

Clouds

Clouds

Clouds

Clouds

Rain

Clouds

Clouds

Clouds

Clouds

Clouds

Clouds

Clouds

Clouds

Clouds

Clouds

Clouds

Clouds

Clouds

Clouds

Clouds

Rain

Rain

Rain

Clouds

Rain

Clouds

Clouds

Rain

Rain

Rain

Rain

Rain

Rain

Rain

Rain

Clouds

Clouds

Clouds

Rain

Rain

Rain

Rain

Rain

Rain

Rain
Temperature 73°F74°F77°F81°F85°F89°F89°F85°F83°F86°F85°F80°F76°F74°F74°F73°F73°F72°F73°F72°F72°F71°F71°F70°F70°F73°F76°F78°F85°F86°F83°F83°F83°F82°F80°F76°F72°F72°F71°F71°F70°F71°F71°F70°F70°F70°F70°F70°F
Feels Like 73°F74°F78°F82°F86°F91°F91°F88°F86°F88°F87°F82°F76°F74°F74°F73°F73°F72°F73°F72°F72°F71°F71°F71°F71°F74°F77°F79°F88°F88°F86°F86°F86°F86°F84°F77°F73°F73°F72°F72°F72°F72°F72°F72°F72°F71°F71°F72°F
Cloudiness 97%97%87%81%75%66%83%90%94%91%93%94%99%100%100%98%93%91%100%100%100%100%100%100%100%100%100%100%100%99%96%98%97%97%98%96%95%89%71%57%65%71%100%100%100%100%100%100%
Visibility 6 mi6 mi6 mi6 mi6 mi6 mi6 mi6 mi6 mi6 mi6 mi6 mi6 mi6 mi6 mi6 mi6 mi6 mi6 mi6 mi6 mi6 mi6 mi6 mi6 mi6 mi6 mi6 mi6 mi6 mi6 mi6 mi6 mi6 mi6 mi6 mi6 mi6 mi6 mi6 mi6 mi6 mi6 mi4 mi3 mi2 mi1 mi0 mi
Precipitation 19%19%19%14%14%10%3%20%0%0%2%2%9%11%14%14%7%7%9%9%10%18%22%46%74%70%70%70%69%66%64%69%72%69%73%81%53%50%52%53%63%61%59%77%91%91%100%100%
Humidity 64%62%58%53%48%43%44%55%60%48%52%61%63%66%66%67%68%70%68%71%72%76%78%83%88%79%71%67%54%53%58%61%63%67%74%85%90%90%91%92%94%94%95%98%98%99%99%99%
Dew Point 60°F60°F62°F62°F63°F64°F64°F67°F67°F64°F65°F65°F62°F62°F61°F61°F61°F61°F61°F62°F62°F63°F63°F64°F66°F66°F66°F66°F67°F66°F67°F68°F68°F70°F71°F70°F69°F68°F68°F68°F68°F69°F69°F70°F70°F69°F69°F70°F
Pressure 30"30"30"29.97"29.97"29.94"29.94"29.91"29.91"29.91"29.91"29.91"29.94"29.94"29.94"29.91"29.91"29.91"29.91"29.94"29.91"29.91"29.94"29.94"29.97"29.97"29.97"29.97"29.94"29.91"29.91"29.88"29.88"29.88"29.88"29.88"29.91"29.91"29.91"29.91"29.94"29.91"29.91"29.91"29.91"29.91"29.91"29.94"
Wind Speed 1.3 mph0.9 mph2 mph3.5 mph4.5 mph6.5 mph7.9 mph7.5 mph6.1 mph6.9 mph4.8 mph6.7 mph5.9 mph4.4 mph3.1 mph3.8 mph4 mph3.5 mph3.2 mph1.7 mph2.9 mph3 mph2.7 mph3.2 mph2.9 mph2.9 mph1.3 mph1.4 mph2.4 mph2.9 mph4.8 mph6.4 mph5.7 mph5.4 mph4.7 mph3.6 mph2.2 mph2.9 mph4.2 mph4.1 mph4 mph4.2 mph3.9 mph5.4 mph5.1 mph5.4 mph6.4 mph6.6 mph
Wind
Direction
359°
N
15°
NNE
286°
WNW
294°
WNW
298°
WNW
303°
WNW
314°
NW
325°
NW
328°
NNW
331°
NNW
329°
NNW
355°
N
16°
NNE
360°
N
33°
NNE
26°
NNE
19°
NNE
13°
NNE
24°
NNE

N
354°
N
11°
N
15°
NNE

N
20°
NNE
55°
NE
77°
ENE
144°
SE
183°
S
222°
SW
238°
WSW
234°
SW
256°
WSW
287°
WNW
322°
NW
343°
NNW
355°
N
40°
NE
60°
ENE
93°
E
97°
E
107°
ESE
126°
SE
139°
SE
151°
SSE
162°
SSE
167°
SSE
173°
S

Daily Forecast

Date High Low Precip. Humidity
Today
Aug 17

Rain
89 °F
69 °F
20%
48%
Thursday
Aug 18

Rain
86 °F
70 °F
81%
54%
Friday
Aug 19

Rain
74 °F
70 °F
100%
97%
Saturday
Aug 20

Rain
89 °F
68 °F
99%
50%
Sunday
Aug 21

Rain
91 °F
71 °F
93%
46%
Monday
Aug 22

Rain
76 °F
70 °F
88%
81%
Tuesday
Aug 23

Rain
79 °F
70 °F
45%
69%
Wednesday
Aug 24

Rain
83 °F
68 °F
87%
61%
Thursday
Aug 25

Rain
78 °F
69 °F
99%
92%
Friday
Aug 26

Rain
89 °F
70 °F
73%
55%
Saturday
Aug 27

Rain
88 °F
71 °F
100%
58%
Sunday
Aug 28

Rain
75 °F
72 °F
100%
93%
Monday
Aug 29

Rain
82 °F
72 °F
100%
73%
Tuesday
Aug 30

Rain
89 °F
71 °F
71%
53%
Wednesday
Aug 31

Rain
92 °F
71 °F
42%
40%
Thursday
Sep 1

Rain
88 °F
66 °F
38%
50%

Temperature 8-14 Day Outlook



Precipitation 8-14 Day Outlook




Quick Links
Hatchet Creek News
Hatchet Creek Photos
Hatchet Creek Videos




About Us
Contact Us
Site Map
Search Site
Advertise With Us
   
Hatchet.DiscoverRivers.com
THE HATCHET CREEK WEBSITE

Copyright 2022, Discover Rivers
Privacy    |    Legal